Camden, NC

1:32 PM EST on February 10, 2016 (GMT -0500)
Elizabeth City Cgas-Regional

Weather History for KECG - March, 2013

Change the Weather History Date:

Thursday, March 28, 2013

  Actual Average Record
Temperature  
Mean Temperature 44 °F 54 °F  
Max Temperature 57 °F 64 °F 87 °F (1945)
Min Temperature 31 °F 43 °F 24 °F (2001)
Degree Days  
Heating Degree Days 21 12  
Month to date heating degree days 552 432  
Since 1 July heating degree days 2561 2904  
Cooling Degree Days 0 0  
Month to date cooling degree days 0 0  
Year to date cooling degree days 5 2  
Moisture  
Dew Point 27 °F    
Average Humidity 55    
Maximum Humidity 78    
Minimum Humidity 32    
Precipitation  
Precipitation 0.00 in 0.16 in 2.30 in (1934)
Month to date precipitation 1.62 3.53  
Year to date precipitation 6.67 9.97  
Snow  
Snow 0.00 in - T in (1959)
Month to date snowfall T  
Since 1 July snowfall T  
Snow Depth 0.00 in    
Sea Level Pressure  
Sea Level Pressure 30.16 in    
Wind  
Wind Speed 10 mph (WNW)    
Max Wind Speed 23 mph    
Max Gust Speed 31 mph    
Visibility 10 miles    
Events      
T = Trace of Precipitation, MM = Missing Value Source: NWS Daily Summary

Daily Weather History Graph

Daily Weather History Graph

Search for Another Location

Airport or City:

Trip Planner

Search our weather history database for the weather conditions in past years. The results will help you decide how hot, cold, wet, or windy it might be!

Date:

Astronomy

Mar. 28, 2013 Rise Set
Actual Time 6:56 AM EDT 7:23 PM EDT
Civil Twilight 6:30 AM EDT 7:49 PM EDT
Nautical Twilight 6:00 AM EDT 8:19 PM EDT
Astronomical Twilight 5:29 AM EDT 8:50 PM EDT
Moon 9:08 PM EDT (3/28) 7:26 AM EDT (3/28)
Length of Visible Light 13h 18m
Length of Day
12h 27m
Full, 98% of the Moon is Illuminated
Mar 28
Full
Apr 3
Last Quarter
Apr 10
New
Apr 18
First Quarter
Apr 25
Full

Hourly Weather History & Observations

Time (EDT) Temp. Windchill Dew Point Humidity Pressure Visibility Wind Dir Wind Speed Gust Speed Precip Events Conditions
12:54 AM 36.0 °F 29.6 °F 25.0 °F 64% 30.15 in 10.0 mi West 8.1 mph - N/A   Clear
1:54 AM 36.0 °F 29.6 °F 24.1 °F 62% 30.15 in 10.0 mi West 8.1 mph - N/A   Clear
2:54 AM 36.0 °F 29.6 °F 24.1 °F 62% 30.15 in 10.0 mi West 8.1 mph - N/A   Clear
3:54 AM 33.1 °F 26.1 °F 25.0 °F 72% 30.14 in 10.0 mi West 8.1 mph - N/A   Clear
4:54 AM 33.1 °F 25.5 °F 25.0 °F 72% 30.14 in 10.0 mi West 9.2 mph - N/A   Clear
5:54 AM 32.0 °F 24.8 °F 25.0 °F 75% 30.14 in 10.0 mi West 8.1 mph - N/A   Clear
6:54 AM 30.9 °F 22.8 °F 25.0 °F 79% 30.15 in 10.0 mi West 9.2 mph - N/A   Clear
7:54 AM 34.0 °F 26.6 °F 26.1 °F 73% 30.16 in 10.0 mi West 9.2 mph - N/A   Clear
8:54 AM 39.9 °F 33.4 °F 27.0 °F 60% 30.17 in 10.0 mi WNW 10.4 mph - N/A   Clear
9:54 AM 45.0 °F 39.3 °F 27.0 °F 49% 30.17 in 10.0 mi WNW 11.5 mph - N/A   Clear
10:54 AM 48.9 °F - 27.0 °F 43% 30.17 in 10.0 mi WNW 11.5 mph 19.6 mph N/A   Clear
11:54 AM 51.1 °F - 27.0 °F 39% 30.16 in 10.0 mi NNW 11.5 mph 19.6 mph N/A   Partly Cloudy
12:54 PM 53.1 °F - 26.1 °F 35% 30.14 in 10.0 mi WNW 16.1 mph 21.9 mph N/A   Clear
1:54 PM 55.0 °F - 26.1 °F 33% 30.12 in 10.0 mi WNW 10.4 mph 23.0 mph N/A   Mostly Cloudy
2:54 PM 53.1 °F - 25.0 °F 34% 30.12 in 10.0 mi WNW 18.4 mph 23.0 mph N/A   Mostly Cloudy
3:54 PM 54.0 °F - 27.0 °F 35% 30.11 in 10.0 mi WNW 15.0 mph 20.7 mph N/A   Mostly Cloudy
4:54 PM 52.0 °F - 27.0 °F 38% 30.13 in 10.0 mi WNW 15.0 mph 24.2 mph N/A   Overcast
5:54 PM 51.1 °F - 28.0 °F 41% 30.14 in 10.0 mi North 6.9 mph - N/A   Overcast
6:54 PM 51.1 °F - 26.1 °F 38% 30.15 in 10.0 mi NNW 9.2 mph - N/A   Mostly Cloudy
7:54 PM 48.9 °F - 27.0 °F 43% 30.17 in 10.0 mi NNW 4.6 mph - N/A   Overcast
8:54 PM 48.0 °F - 28.9 °F 48% 30.20 in 10.0 mi NNW 10.4 mph - N/A   Scattered Clouds
9:54 PM 45.0 °F 42.6 °F 30.9 °F 58% 30.23 in 10.0 mi North 4.6 mph - N/A   Clear
10:54 PM 41.0 °F 38.0 °F 30.0 °F 65% 30.24 in 10.0 mi NNW 4.6 mph - N/A   Clear
11:54 PM 39.9 °F 35.1 °F 28.9 °F 65% 30.24 in 10.0 mi NW 6.9 mph - N/A   Clear